FDX1757 KIND-KMSY

Flight info

Callsign FDX1757
Flight time 1h 33m
Altitude 38000
Route OOM5 PXV J29 MEM J35 MCB TRSSH1
Aircraft MD11/H-SDE1E2E3FGHIJ2J3J4J5M1RWXY/LB1D1

Departure

Time 2026-05-04 21:44
Airport Indianapolis International Airport (KIND)

Arrival

Time 2026-05-04 23:17
Airport Louis Armstrong New Orleans International Airport (KMSY)
Time Latitude Longitude Altitude Speed Heading
2026-05-04 21:26 39.71107 -86.28712 794 ft 0 kts 314°
2026-05-04 21:35 39.71100 -86.28701 794 ft 4 kts 319°
2026-05-04 21:35 39.71079 -86.28682 794 ft 4 kts 341°
2026-05-04 21:35 39.71057 -86.28676 794 ft 4 kts 13°
2026-05-04 21:35 39.71037 -86.28687 795 ft 1 kts 45°
2026-05-04 21:37 39.71042 -86.28681 795 ft 3 kts 46°
2026-05-04 21:37 39.71052 -86.28667 795 ft 0 kts 45°
2026-05-04 21:38 39.71054 -86.28664 795 ft 2 kts 45°
2026-05-04 21:38 39.71071 -86.28643 794 ft 0 kts 45°
2026-05-04 21:38 39.71086 -86.28627 794 ft 6 kts 35°
2026-05-04 21:39 39.71118 -86.28621 794 ft 5 kts 351°
2026-05-04 21:39 39.71156 -86.28654 794 ft 7 kts 317°
2026-05-04 21:39 39.71190 -86.28698 794 ft 6 kts 320°
2026-05-04 21:39 39.71229 -86.28699 794 ft 7 kts 20°
2026-05-04 21:40 39.71281 -86.28643 795 ft 13 kts 45°
2026-05-04 21:40 39.71364 -86.28535 792 ft 21 kts 45°
2026-05-04 21:40 39.71468 -86.28402 791 ft 20 kts 44°
2026-05-04 21:40 39.71569 -86.28274 789 ft 20 kts 49°
2026-05-04 21:41 39.71621 -86.28144 791 ft 12 kts 68°
2026-05-04 21:41 39.71663 -86.28057 792 ft 13 kts 50°
2026-05-04 21:41 39.71727 -86.27972 795 ft 15 kts 44°
2026-05-04 21:41 39.71799 -86.27881 794 ft 13 kts 44°
2026-05-04 21:42 39.71861 -86.27839 795 ft 7 kts 352°
2026-05-04 21:42 39.71901 -86.27873 794 ft 7 kts 315°
2026-05-04 21:42 39.71936 -86.27920 794 ft 10 kts 311°
2026-05-04 21:42 39.71939 -86.28002 792 ft 8 kts 234°
2026-05-04 21:43 39.71918 -86.28030 792 ft 0 kts 224°
2026-05-04 21:43 39.71914 -86.28035 792 ft 6 kts 224°
2026-05-04 21:43 39.71710 -86.28294 787 ft 95 kts 224°
2026-05-04 21:43 39.70999 -86.29225 1031 ft 171 kts 223°
2026-05-04 21:44 39.70142 -86.30322 2262 ft 177 kts 222°
2026-05-04 21:44 39.69292 -86.31442 3612 ft 178 kts 225°
2026-05-04 21:44 39.68371 -86.32645 4270 ft 202 kts 224°
2026-05-04 21:44 39.67298 -86.34051 4216 ft 232 kts 225°
2026-05-04 21:45 39.66144 -86.35541 4611 ft 235 kts 219°
2026-05-04 21:45 39.64686 -86.36517 5062 ft 239 kts 202°
2026-05-04 21:45 39.63093 -86.37159 5522 ft 241 kts 200°
2026-05-04 21:45 39.61489 -86.37804 6336 ft 241 kts 201°
2026-05-04 21:46 39.59878 -86.38494 7216 ft 245 kts 203°
2026-05-04 21:46 39.58270 -86.39221 8448 ft 246 kts 205°
2026-05-04 21:46 39.56640 -86.39988 9614 ft 253 kts 206°
2026-05-04 21:46 39.54958 -86.40806 10419 ft 272 kts 207°
2026-05-04 21:47 39.53057 -86.41765 10553 ft 313 kts 207°
2026-05-04 21:47 39.50942 -86.42837 11142 ft 333 kts 206°
2026-05-04 21:47 39.48752 -86.43937 12177 ft 342 kts 207°
2026-05-04 21:47 39.46509 -86.45068 13162 ft 350 kts 207°
2026-05-04 21:48 39.44216 -86.46230 14074 ft 357 kts 207°
2026-05-04 21:48 39.41888 -86.47412 14967 ft 363 kts 207°
2026-05-04 21:48 39.39513 -86.48622 15803 ft 370 kts 207°
2026-05-04 21:48 39.37102 -86.49852 16641 ft 376 kts 207°
2026-05-04 21:49 39.34646 -86.51104 17466 ft 382 kts 207°
2026-05-04 21:49 39.32154 -86.52375 18253 ft 388 kts 207°
2026-05-04 21:49 39.29625 -86.53664 18952 ft 393 kts 207°
2026-05-04 21:49 39.27066 -86.54966 19687 ft 397 kts 207°
2026-05-04 21:50 39.24484 -86.56279 20395 ft 401 kts 207°
2026-05-04 21:50 39.21916 -86.57584 21131 ft 404 kts 207°
2026-05-04 21:50 39.19257 -86.58935 21899 ft 408 kts 207°
2026-05-04 21:50 39.16641 -86.60264 22652 ft 412 kts 207°
2026-05-04 21:51 39.13959 -86.61625 23420 ft 416 kts 207°
2026-05-04 21:51 39.11273 -86.63043 24064 ft 419 kts 208°
2026-05-04 21:51 39.08597 -86.64583 24696 ft 423 kts 210°
2026-05-04 21:51 39.05909 -86.66194 25309 ft 428 kts 210°
2026-05-04 21:52 39.03198 -86.67843 25944 ft 433 kts 211°
2026-05-04 21:52 39.00461 -86.69511 26599 ft 438 kts 210°
2026-05-04 21:52 38.97689 -86.71195 27235 ft 443 kts 210°
2026-05-04 21:52 38.94889 -86.72888 27874 ft 448 kts 210°
2026-05-04 21:53 38.92047 -86.74602 28471 ft 453 kts 210°
2026-05-04 21:53 38.89182 -86.76325 29088 ft 458 kts 210°
2026-05-04 21:53 38.86281 -86.78068 29673 ft 462 kts 210°
2026-05-04 21:53 38.83373 -86.79811 30181 ft 466 kts 211°
2026-05-04 21:54 38.80422 -86.81579 30659 ft 470 kts 211°
2026-05-04 21:54 38.77451 -86.83357 31138 ft 472 kts 210°
2026-05-04 21:54 38.74475 -86.85135 31683 ft 472 kts 210°
2026-05-04 21:54 38.71497 -86.86913 32236 ft 472 kts 210°
2026-05-04 21:55 38.68523 -86.88688 32753 ft 472 kts 210°
2026-05-04 21:55 38.65544 -86.90464 33291 ft 472 kts 210°
2026-05-04 21:55 38.62569 -86.92237 33816 ft 472 kts 209°
2026-05-04 21:55 38.59594 -86.94008 34265 ft 471 kts 210°
2026-05-04 21:56 38.56628 -86.95772 34695 ft 471 kts 210°
2026-05-04 21:56 38.53657 -86.97543 35057 ft 471 kts 210°
2026-05-04 21:56 38.50796 -86.99533 35471 ft 465 kts 218°
2026-05-04 21:56 38.48257 -87.02035 35899 ft 458 kts 227°
2026-05-04 21:57 38.46021 -87.04901 36308 ft 454 kts 231°
2026-05-04 21:57 38.43918 -87.07902 36697 ft 453 kts 233°
2026-05-04 21:57 38.41841 -87.10919 37097 ft 452 kts 232°
2026-05-04 21:57 38.39748 -87.13906 37513 ft 451 kts 232°
2026-05-04 21:58 38.37631 -87.16860 37775 ft 452 kts 231°
2026-05-04 21:58 38.33326 -87.22713 37829 ft 453 kts 230°
2026-05-04 21:59 38.28990 -87.28524 37835 ft 453 kts 230°
2026-05-04 21:59 38.24647 -87.34328 37835 ft 453 kts 230°
2026-05-04 22:00 38.20309 -87.40121 37844 ft 452 kts 230°
2026-05-04 22:00 38.15968 -87.45910 37841 ft 452 kts 230°
2026-05-04 22:01 38.11632 -87.51680 37862 ft 451 kts 230°
2026-05-04 22:01 38.07300 -87.57437 37860 ft 451 kts 230°
2026-05-04 22:02 38.02963 -87.63188 37860 ft 451 kts 230°
2026-05-04 22:02 37.98654 -87.68892 37855 ft 451 kts 230°
2026-05-04 22:03 37.94263 -87.74578 37851 ft 454 kts 226°
2026-05-04 22:03 37.89073 -87.79325 37858 ft 460 kts 217°
2026-05-04 22:04 37.83629 -87.83518 37857 ft 461 kts 216°
2026-05-04 22:04 37.78163 -87.87755 37853 ft 461 kts 217°
2026-05-04 22:05 37.72734 -87.92051 37851 ft 460 kts 217°
2026-05-04 22:05 37.67318 -87.96361 37850 ft 460 kts 218°
2026-05-04 22:06 37.61902 -88.00668 37858 ft 460 kts 218°
2026-05-04 22:06 37.56484 -88.04966 37860 ft 460 kts 218°
2026-05-04 22:07 37.51068 -88.09254 37845 ft 460 kts 218°
2026-05-04 22:07 37.45640 -88.13544 37824 ft 462 kts 218°
2026-05-04 22:08 37.40181 -88.17853 37834 ft 464 kts 218°
2026-05-04 22:08 37.34706 -88.22163 37840 ft 464 kts 218°
2026-05-04 22:09 37.29244 -88.26445 37850 ft 464 kts 218°
2026-05-04 22:09 37.23757 -88.30712 37836 ft 464 kts 218°
2026-05-04 22:10 37.18274 -88.34976 37838 ft 465 kts 219°
2026-05-04 22:10 37.12777 -88.39254 37845 ft 465 kts 219°
2026-05-04 22:11 37.07277 -88.43528 37848 ft 465 kts 218°
2026-05-04 22:11 37.01783 -88.47789 37843 ft 464 kts 219°
2026-05-04 22:12 36.96282 -88.52049 37843 ft 465 kts 219°
2026-05-04 22:12 36.90632 -88.56044 37858 ft 475 kts 210°
2026-05-04 22:13 36.84138 -88.58165 37878 ft 488 kts 198°
2026-05-04 22:13 36.77495 -88.59858 37883 ft 486 kts 200°
2026-05-04 22:14 36.70963 -88.61928 37879 ft 483 kts 203°
2026-05-04 22:14 36.64491 -88.64196 37880 ft 483 kts 204°
2026-05-04 22:15 36.58026 -88.66493 37884 ft 483 kts 204°
2026-05-04 22:15 36.51556 -88.68774 37873 ft 483 kts 204°
2026-05-04 22:16 36.45084 -88.71043 37868 ft 484 kts 204°
2026-05-04 22:16 36.38596 -88.73311 37881 ft 484 kts 204°
2026-05-04 22:17 36.32104 -88.75577 37879 ft 484 kts 204°
2026-05-04 22:17 36.26714 -88.77455 37874 ft 484 kts 204°
2026-05-04 22:18 36.20229 -88.79712 37875 ft 484 kts 204°
2026-05-04 22:18 36.13743 -88.81963 37877 ft 484 kts 204°
2026-05-04 22:19 36.07258 -88.84203 37886 ft 484 kts 204°
2026-05-04 22:19 36.00766 -88.86444 37883 ft 485 kts 205°
2026-05-04 22:20 35.94251 -88.88697 37896 ft 487 kts 205°
2026-05-04 22:20 35.87722 -88.90950 37895 ft 487 kts 205°
2026-05-04 22:21 35.81194 -88.93197 37910 ft 487 kts 205°
2026-05-04 22:21 35.74662 -88.95442 37879 ft 487 kts 205°
2026-05-04 22:22 35.68128 -88.97686 37914 ft 488 kts 206°
2026-05-04 22:22 35.61576 -88.99931 37918 ft 489 kts 206°
2026-05-04 22:23 35.55027 -89.02171 37915 ft 489 kts 205°
2026-05-04 22:23 35.48476 -89.04408 37877 ft 489 kts 206°
2026-05-04 22:24 35.41927 -89.06642 37914 ft 490 kts 206°
2026-05-04 22:24 35.35346 -89.08881 37910 ft 491 kts 206°
2026-05-04 22:25 35.28759 -89.11110 37911 ft 491 kts 206°
2026-05-04 22:25 35.22178 -89.13334 37899 ft 491 kts 206°
2026-05-04 22:26 35.15584 -89.15565 37914 ft 492 kts 206°
2026-05-04 22:26 35.08994 -89.17793 37926 ft 492 kts 206°
2026-05-04 22:27 35.02443 -89.20003 37927 ft 492 kts 206°
2026-05-04 22:27 34.95804 -89.22240 37916 ft 492 kts 207°
2026-05-04 22:28 34.89205 -89.24459 37925 ft 492 kts 207°
2026-05-04 22:28 34.82605 -89.26675 37936 ft 492 kts 207°
2026-05-04 22:29 34.76003 -89.28888 37935 ft 492 kts 207°
2026-05-04 22:29 34.69397 -89.31099 37926 ft 493 kts 207°
2026-05-04 22:30 34.62820 -89.33298 37940 ft 494 kts 207°
2026-05-04 22:30 34.56196 -89.35506 37943 ft 494 kts 207°
2026-05-04 22:31 34.49570 -89.37706 37947 ft 494 kts 207°
2026-05-04 22:31 34.42934 -89.39904 37957 ft 495 kts 207°
2026-05-04 22:32 34.36283 -89.42110 37962 ft 496 kts 207°
2026-05-04 22:32 34.29627 -89.44314 37960 ft 496 kts 207°
2026-05-04 22:33 34.22975 -89.46514 37960 ft 496 kts 207°
2026-05-04 22:33 34.16307 -89.48718 37954 ft 498 kts 208°
2026-05-04 22:34 34.09610 -89.50928 37960 ft 499 kts 208°
2026-05-04 22:34 34.02903 -89.53134 37961 ft 499 kts 208°
2026-05-04 22:35 33.96203 -89.55335 37963 ft 499 kts 208°
2026-05-04 22:35 33.89483 -89.57542 37966 ft 502 kts 208°
2026-05-04 22:36 33.82733 -89.59754 37964 ft 503 kts 208°
2026-05-04 22:36 33.75979 -89.61960 37971 ft 503 kts 208°
2026-05-04 22:37 33.69219 -89.64160 37977 ft 503 kts 208°
2026-05-04 22:37 33.62420 -89.66376 37965 ft 510 kts 209°
2026-05-04 22:38 33.55556 -89.68608 37971 ft 511 kts 209°
2026-05-04 22:38 33.48686 -89.70835 37970 ft 512 kts 209°
2026-05-04 22:39 33.41827 -89.73056 37973 ft 512 kts 209°
2026-05-04 22:39 33.34954 -89.75281 37941 ft 512 kts 209°
2026-05-04 22:40 33.28080 -89.77504 37945 ft 512 kts 209°
2026-05-04 22:40 33.21205 -89.79723 37939 ft 512 kts 209°
2026-05-04 22:41 33.14326 -89.81939 37907 ft 512 kts 208°
2026-05-04 22:41 33.07445 -89.84154 37938 ft 512 kts 208°
2026-05-04 22:42 33.00561 -89.86364 37939 ft 512 kts 208°
2026-05-04 22:42 32.93670 -89.88573 37940 ft 513 kts 208°
2026-05-04 22:43 32.86774 -89.90773 37933 ft 512 kts 208°
2026-05-04 22:43 32.79894 -89.92964 37946 ft 512 kts 208°
2026-05-04 22:44 32.73015 -89.95158 37945 ft 512 kts 208°
2026-05-04 22:44 32.66138 -89.97350 37949 ft 512 kts 208°
2026-05-04 22:45 32.59259 -89.99538 37936 ft 511 kts 208°
2026-05-04 22:45 32.49002 -90.02789 37981 ft 508 kts 208°
2026-05-04 22:46 32.42176 -90.04955 37980 ft 508 kts 208°
2026-05-04 22:46 32.35351 -90.07115 37981 ft 508 kts 208°
2026-05-04 22:47 32.28531 -90.09267 37995 ft 506 kts 208°
2026-05-04 22:47 32.21736 -90.11409 38000 ft 505 kts 208°
2026-05-04 22:48 32.14941 -90.13550 37999 ft 505 kts 208°
2026-05-04 22:48 32.08190 -90.15669 37999 ft 506 kts 208°
2026-05-04 22:49 32.01387 -90.17798 37296 ft 505 kts 208°
2026-05-04 22:49 31.98000 -90.18855 36697 ft 504 kts 208°
2026-05-04 22:49 31.94601 -90.19920 36144 ft 506 kts 208°
2026-05-04 22:50 31.91197 -90.20988 35603 ft 507 kts 208°
2026-05-04 22:50 31.87786 -90.22058 35064 ft 508 kts 208°
2026-05-04 22:50 31.84357 -90.23131 34527 ft 510 kts 208°
2026-05-04 22:50 31.80924 -90.24204 33970 ft 512 kts 208°
2026-05-04 22:51 31.77483 -90.25278 33271 ft 512 kts 207°
2026-05-04 22:51 31.73951 -90.26144 32663 ft 527 kts 199°
2026-05-04 22:51 31.70253 -90.26488 32017 ft 538 kts 192°
2026-05-04 22:51 31.66496 -90.26490 31365 ft 541 kts 188°
2026-05-04 22:52 31.62746 -90.26344 30693 ft 537 kts 187°
2026-05-04 22:52 31.59034 -90.26176 29975 ft 530 kts 187°
2026-05-04 22:52 31.55375 -90.26041 29196 ft 521 kts 187°
2026-05-04 22:52 31.51783 -90.25950 28451 ft 512 kts 188°
2026-05-04 22:53 31.48255 -90.25895 27800 ft 504 kts 188°
2026-05-04 22:53 31.44772 -90.25862 27155 ft 496 kts 188°
2026-05-04 22:53 31.41349 -90.25837 26518 ft 489 kts 188°
2026-05-04 22:53 31.37991 -90.25815 25886 ft 481 kts 187°
2026-05-04 22:54 31.34668 -90.25791 25273 ft 474 kts 187°
2026-05-04 22:54 31.31393 -90.25759 24661 ft 467 kts 186°
2026-05-04 22:54 31.28164 -90.25635 24037 ft 462 kts 184°
2026-05-04 22:54 31.24976 -90.25429 23324 ft 455 kts 182°
2026-05-04 22:55 31.21846 -90.25188 22580 ft 448 kts 182°
2026-05-04 22:55 31.18759 -90.24942 21911 ft 442 kts 182°
2026-05-04 22:55 31.15705 -90.24700 21265 ft 437 kts 182°
2026-05-04 22:55 31.12688 -90.24468 20630 ft 432 kts 182°
2026-05-04 22:56 31.09703 -90.24242 19999 ft 427 kts 182°
2026-05-04 22:56 31.06755 -90.24022 19390 ft 423 kts 182°
2026-05-04 22:56 31.03833 -90.23806 18773 ft 418 kts 182°
2026-05-04 22:56 31.00940 -90.23592 18151 ft 414 kts 182°
2026-05-04 22:57 30.98141 -90.23384 17540 ft 407 kts 182°
2026-05-04 22:57 30.95320 -90.23177 16893 ft 405 kts 182°
2026-05-04 22:57 30.92522 -90.22972 16288 ft 401 kts 182°
2026-05-04 22:57 30.89747 -90.22768 15756 ft 398 kts 182°
2026-05-04 22:58 30.87030 -90.22569 15133 ft 393 kts 181°
2026-05-04 22:58 30.84341 -90.22370 14554 ft 383 kts 181°
2026-05-04 22:58 30.81711 -90.22176 14005 ft 374 kts 181°
2026-05-04 22:58 30.79138 -90.21987 13430 ft 367 kts 181°
2026-05-04 22:59 30.76621 -90.21803 12868 ft 358 kts 181°
2026-05-04 22:59 30.74161 -90.21623 12371 ft 352 kts 181°
2026-05-04 22:59 30.71739 -90.21448 11991 ft 347 kts 181°
2026-05-04 22:59 30.69338 -90.21275 11653 ft 343 kts 181°
2026-05-04 23:00 30.66962 -90.21104 11470 ft 342 kts 181°
2026-05-04 23:00 30.64590 -90.20933 11352 ft 341 kts 180°
2026-05-04 23:00 30.62261 -90.20762 11210 ft 327 kts 180°
2026-05-04 23:00 30.60052 -90.20595 11088 ft 309 kts 181°
2026-05-04 23:01 30.57951 -90.20438 10998 ft 299 kts 181°
2026-05-04 23:01 30.55885 -90.20288 10879 ft 297 kts 181°
2026-05-04 23:01 30.53831 -90.20141 10746 ft 295 kts 181°
2026-05-04 23:01 30.51787 -90.19994 10580 ft 295 kts 181°
2026-05-04 23:02 30.49723 -90.19846 10107 ft 296 kts 180°
2026-05-04 23:02 30.47673 -90.19697 9578 ft 296 kts 180°
2026-05-04 23:02 30.46310 -90.19598 9216 ft 296 kts 180°
2026-05-04 23:02 30.44320 -90.19450 8757 ft 277 kts 180°
2026-05-04 23:03 30.42396 -90.19308 8292 ft 275 kts 180°
2026-05-04 23:03 30.40496 -90.19170 7846 ft 272 kts 180°
2026-05-04 23:03 30.38612 -90.19034 7388 ft 271 kts 180°
2026-05-04 23:03 30.36735 -90.18899 6964 ft 269 kts 180°
2026-05-04 23:04 30.34873 -90.18764 6574 ft 267 kts 180°
2026-05-04 23:04 30.33025 -90.18630 6166 ft 264 kts 180°
2026-05-04 23:04 30.31202 -90.18499 5769 ft 261 kts 179°
2026-05-04 23:04 30.29401 -90.18369 5369 ft 257 kts 179°
2026-05-04 23:05 30.27624 -90.18241 5005 ft 254 kts 178°
2026-05-04 23:05 30.25875 -90.18115 4636 ft 250 kts 178°
2026-05-04 23:05 30.24171 -90.17991 4283 ft 248 kts 178°
2026-05-04 23:05 30.22467 -90.17868 4035 ft 246 kts 178°
2026-05-04 23:06 30.20762 -90.17914 3981 ft 245 kts 190°
2026-05-04 23:06 30.19180 -90.18616 3978 ft 245 kts 213°
2026-05-04 23:06 30.18028 -90.20056 3976 ft 247 kts 237°
2026-05-04 23:06 30.17249 -90.21827 3980 ft 248 kts 244°
2026-05-04 23:07 30.16603 -90.23679 3972 ft 248 kts 248°
2026-05-04 23:07 30.16019 -90.25554 3973 ft 249 kts 248°
2026-05-04 23:07 30.15435 -90.27435 3980 ft 249 kts 248°
2026-05-04 23:07 30.14849 -90.29318 3975 ft 249 kts 248°
2026-05-04 23:08 30.14262 -90.31200 3983 ft 249 kts 248°
2026-05-04 23:08 30.13676 -90.33084 3980 ft 249 kts 248°
2026-05-04 23:08 30.13108 -90.34918 3973 ft 236 kts 248°
2026-05-04 23:08 30.12573 -90.36693 3970 ft 234 kts 252°
2026-05-04 23:09 30.12517 -90.38559 3970 ft 239 kts 280°
2026-05-04 23:09 30.13033 -90.40381 3989 ft 237 kts 288°
2026-05-04 23:09 30.13600 -90.42101 3970 ft 226 kts 288°
2026-05-04 23:09 30.14158 -90.43788 3970 ft 225 kts 288°
2026-05-04 23:10 30.14708 -90.45474 3976 ft 223 kts 284°
2026-05-04 23:10 30.14768 -90.47221 3966 ft 217 kts 253°
2026-05-04 23:10 30.14029 -90.48710 3890 ft 216 kts 227°
2026-05-04 23:10 30.12982 -90.49933 3529 ft 213 kts 223°
2026-05-04 23:11 30.11902 -90.51083 3186 ft 210 kts 213°
2026-05-04 23:11 30.10536 -90.51587 3009 ft 209 kts 183°
2026-05-04 23:11 30.09081 -90.51535 2987 ft 209 kts 178°
2026-05-04 23:11 30.07706 -90.51454 2953 ft 192 kts 178°
2026-05-04 23:12 30.06392 -90.51295 2976 ft 189 kts 168°
2026-05-04 23:12 30.05194 -90.50708 2948 ft 194 kts 145°
2026-05-04 23:12 30.04474 -90.49409 2976 ft 200 kts 108°
2026-05-04 23:12 30.04223 -90.47816 2997 ft 202 kts 102°
2026-05-04 23:13 30.03979 -90.46235 2924 ft 195 kts 105°
2026-05-04 23:13 30.03682 -90.44756 2686 ft 182 kts 110°
2026-05-04 23:13 30.03345 -90.43363 2481 ft 179 kts 110°
2026-05-04 23:13 30.03013 -90.41988 2274 ft 177 kts 111°
2026-05-04 23:14 30.02683 -90.40628 2057 ft 175 kts 110°
2026-05-04 23:14 30.02352 -90.39266 1849 ft 177 kts 109°
2026-05-04 23:14 30.02021 -90.37898 1634 ft 177 kts 109°
2026-05-04 23:14 30.01701 -90.36567 1404 ft 162 kts 110°
2026-05-04 23:15 30.01418 -90.35383 1178 ft 147 kts 112°
2026-05-04 23:15 30.01140 -90.34250 1037 ft 148 kts 112°
2026-05-04 23:15 30.00860 -90.33110 891 ft 147 kts 110°
2026-05-04 23:15 30.00584 -90.31970 718 ft 146 kts 109°
2026-05-04 23:16 30.00313 -90.30855 541 ft 143 kts 110°
2026-05-04 23:16 30.00059 -90.29770 350 ft 138 kts 111°
2026-05-04 23:16 29.99795 -90.28716 167 ft 137 kts 109°
2026-05-04 23:16 29.99549 -90.27680 13 ft 124 kts 109°
2026-05-04 23:17 29.99368 -90.26949 15 ft 66 kts 105°
2026-05-04 23:17 29.99291 -90.26637 17 ft 29 kts 106°
2026-05-04 23:17 29.99242 -90.26508 16 ft 7 kts 149°
2026-05-04 23:17 29.99195 -90.26503 16 ft 8 kts 178°
2026-05-04 23:18 29.99147 -90.26485 15 ft 7 kts 146°
2026-05-04 23:18 29.99121 -90.26446 16 ft 6 kts 117°
2026-05-04 23:18 29.99109 -90.26402 14 ft 5 kts 104°
2026-05-04 23:18 29.99108 -90.26398 14 ft 0 kts 104°
2026-05-04 23:21 29.99103 -90.26376 14 ft 8 kts 104°
2026-05-04 23:21 29.99091 -90.26322 14 ft 5 kts 105°
2026-05-04 23:21 29.99067 -90.26280 14 ft 5 kts 145°
2026-05-04 23:21 29.99027 -90.26277 15 ft 8 kts 188°
2026-05-04 23:22 29.98949 -90.26300 15 ft 13 kts 195°
2026-05-04 23:22 29.98884 -90.26326 15 ft 3 kts 221°
2026-05-04 23:22 29.98880 -90.26352 16 ft 5 kts 270°
2026-05-04 23:22 29.98886 -90.26384 16 ft 4 kts 283°
2026-05-04 23:23 29.98888 -90.26394 18 ft 0 kts 283°